M I D A S
Marine Information and Data Acquisition System
Tripno 250 of the Zeeleeuw from 2002-04-25 07:43:40 to 2002-04-25 11:15:19
Back to CruiseResearch ActivitiesStationsMapUnderway DataData graphs

EquipmentUnitsComments
TimeDGPSUTC
LatitudeDGPSDM.mWGS84
LongitudeDGPSDM.mWGS84
SpeedMeteo Stationm/sRelative wind speed
DirectionMeteo StationdegRelative wind direction
TemperatureMeteo Stationdeg CelciusAir temperature
PressureMeteo StationPaAtmospheric pressure
HumidityMeteo Station%Relative humidity
Missing or incorrect values are displayed as -999
Metereological data collected by the RV Zeeleeuw from 2002-04-25 07:43:40 to 2002-04-25 11:15:19
                                                                                    Next 1000 lines
Time Latitude Longitude Speed Direction Temperature Pressure Humidity
2002-04-25 07:43:51 51°13.687 2°55.904 4.7 58 10.6 102260 90
2002-04-25 07:43:55 51°13.687 2°55.903 4.2 60 10.6 102260 90
2002-04-25 07:44:00 51°13.687 2°55.902 4.3 49 10.6 102260 90
2002-04-25 07:44:05 51°13.687 2°55.899 4.9 57 10.6 102260 90
2002-04-25 07:44:10 51°13.688 2°55.897 3.8 126 10.6 102270 90
2002-04-25 07:44:15 51°13.688 2°55.893 6.4 121 10.6 102270 90
2002-04-25 07:44:21 51°13.689 2°55.889 8.3 62 10.6 102270 90
2002-04-25 07:44:26 51°13.689 2°55.884 8.7 52 10.6 102270 90
2002-04-25 07:44:31 51°13.69 2°55.879 8.2 67 10.7 102270 90
2002-04-25 07:44:36 51°13.691 2°55.874 7.4 62 10.7 102270 90
2002-04-25 07:44:41 51°13.691 2°55.868 7.6 69 10.7 102270 90
2002-04-25 07:44:46 51°13.692 2°55.862 6.5 69 10.7 102270 90
2002-04-25 07:44:51 51°13.693 2°55.855 6.6 61 10.7 102260 90
2002-04-25 07:44:56 51°13.693 2°55.849 6.1 59 10.7 102260 90
2002-04-25 07:45:01 51°13.694 2°55.842 6.7 56 10.7 102260 89
2002-04-25 07:45:06 51°13.695 2°55.835 6.1 63 10.7 102260 89
2002-04-25 07:45:11 51°13.695 2°55.828 6.8 57 10.7 102260 89
2002-04-25 07:45:16 51°13.696 2°55.821 6.8 51 10.7 102260 89
2002-04-25 07:45:21 51°13.696 2°55.815 5.6 45 10.6 102260 89
2002-04-25 07:45:26 51°13.696 2°55.808 5.4 49 10.6 102260 89
2002-04-25 07:45:31 51°13.697 2°55.801 7.5 47 10.6 102260 89
2002-04-25 07:45:36 51°13.697 2°55.795 6.4 44 10.6 102260 89
2002-04-25 07:45:41 51°13.697 2°55.788 7 51 10.6 102260 89
2002-04-25 07:45:46 51°13.697 2°55.782 7.9 125 10.6 102260 89
2002-04-25 07:45:51 51°13.696 2°55.776 7.9 49 10.7 102260 90
2002-04-25 07:45:55 51°13.696 2°55.771 8 49 10.7 102260 90
2002-04-25 07:46:00 51°13.696 2°55.765 6.3 47 10.7 102260 90
2002-04-25 07:46:06 51°13.695 2°55.758 7 41 10.7 102260 90
2002-04-25 07:46:10 51°13.695 2°55.754 5.9 24 10.7 102260 89
2002-04-25 07:46:15 51°13.694 2°55.748 6.5 31 10.7 102260 89
2002-04-25 07:46:20 51°13.694 2°55.743 6.9 40 10.7 102260 89
2002-04-25 07:46:25 51°13.693 2°55.738 5.5 51 10.7 102260 89
2002-04-25 07:46:30 51°13.692 2°55.733 6.4 36 10.7 102260 89
2002-04-25 07:46:35 51°13.691 2°55.729 6.5 35 10.7 102260 89
2002-04-25 07:46:40 51°13.69 2°55.725 5.4 23 10.7 102270 89
2002-04-25 07:46:45 51°13.69 2°55.722 5.4 42 10.7 102270 89
2002-04-25 07:46:50 51°13.69 2°55.722 3.5 7 10.7 102260 89
2002-04-25 07:46:55 51°13.691 2°55.722 2.4 347 10.7 102260 89
2002-04-25 07:47:00 51°13.693 2°55.725 2.5 344 10.6 102270 89
2002-04-25 07:47:05 51°13.696 2°55.727 2.9 302 10.6 102270 89
2002-04-25 07:47:10 51°13.699 2°55.73 5.2 322 10.6 102270 89
2002-04-25 07:47:15 51°13.704 2°55.732 6.1 284 10.6 102270 89
2002-04-25 07:47:20 51°13.709 2°55.734 6.8 290 10.7 102260 89
2002-04-25 07:47:25 51°13.715 2°55.733 9 294 10.7 102260 89
2002-04-25 07:47:30 51°13.721 2°55.732 7.4 281 10.7 102270 89
2002-04-25 07:47:35 51°13.726 2°55.729 8.2 284 10.7 102270 89
2002-04-25 07:47:40 51°13.732 2°55.726 6.9 286 10.7 102260 89
2002-04-25 07:47:45 51°13.737 2°55.722 6 277 10.7 102260 89
2002-04-25 07:47:50 51°13.741 2°55.719 5.7 290 10.7 102270 89
2002-04-25 07:47:55 51°13.746 2°55.714 6.7 288 10.7 102270 89
2002-04-25 07:48:00 51°13.751 2°55.71 3.7 277 10.6 102270 89
2002-04-25 07:48:05 51°13.756 2°55.704 4.1 237 10.6 102270 89
2002-04-25 07:48:10 51°13.761 2°55.699 5.8 269 10.6 102270 89
2002-04-25 07:48:15 51°13.765 2°55.693 3.8 251 10.6 102270 89
2002-04-25 07:48:20 51°13.77 2°55.686 4.7 238 10.6 102270 89
2002-04-25 07:48:25 51°13.775 2°55.68 4.2 235 10.6 102270 89
2002-04-25 07:48:30 51°13.78 2°55.674 5.7 251 10.7 102260 89
2002-04-25 07:48:35 51°13.785 2°55.667 4.1 236 10.7 102260 89
2002-04-25 07:48:40 51°13.79 2°55.661 5.1 227 10.7 102260 89
2002-04-25 07:48:45 51°13.795 2°55.654 4.3 259 10.7 102260 89
2002-04-25 07:48:50 51°13.8 2°55.648 4.5 252 10.7 102260 89
2002-04-25 07:48:55 51°13.805 2°55.642 4 259 10.7 102260 89
2002-04-25 07:49:00 51°13.811 2°55.637 4.1 272 10.7 102260 89
2002-04-25 07:49:05 51°13.816 2°55.632 5.3 283 10.7 102260 89
2002-04-25 07:49:10 51°13.821 2°55.628 3.4 264 10.7 102260 89
2002-04-25 07:49:15 51°13.827 2°55.623 4.3 285 10.7 102260 89
2002-04-25 07:49:20 51°13.833 2°55.62 3.6 301 10.7 102260 89
2002-04-25 07:49:25 51°13.838 2°55.616 2.9 230 10.7 102260 89
2002-04-25 07:49:30 51°13.843 2°55.613 3.2 262 10.7 102270 89
2002-04-25 07:49:35 51°13.848 2°55.609 2.6 243 10.7 102270 89
2002-04-25 07:49:40 51°13.853 2°55.605 3.6 284 10.7 102260 89
2002-04-25 07:49:46 51°13.859 2°55.602 4.6 272 10.7 102260 89
2002-04-25 07:49:50 51°13.863 2°55.599 4.3 296 10.7 102260 89
2002-04-25 07:49:55 51°13.868 2°55.596 5.8 302 10.7 102260 89
2002-04-25 07:50:00 51°13.873 2°55.594 4.9 301 10.7 102260 89
2002-04-25 07:50:05 51°13.878 2°55.592 3.8 282 10.7 102260 89
2002-04-25 07:50:10 51°13.882 2°55.589 3.9 289 10.7 102260 89
2002-04-25 07:50:15 51°13.887 2°55.587 2.9 270 10.7 102260 89
2002-04-25 07:50:20 51°13.892 2°55.585 3.6 290 10.7 102260 89
2002-04-25 07:50:25 51°13.897 2°55.583 4.5 266 10.7 102260 89
2002-04-25 07:50:30 51°13.901 2°55.581 4.2 284 10.7 102260 89
2002-04-25 07:50:35 51°13.906 2°55.579 4.5 271 10.7 102260 89
2002-04-25 07:50:40 51°13.91 2°55.577 3.2 316 10.7 102260 89
2002-04-25 07:50:45 51°13.915 2°55.576 2.6 329 10.7 102260 89
2002-04-25 07:50:51 51°13.921 2°55.573 4.1 293 10.7 102260 89
2002-04-25 07:50:55 51°13.925 2°55.572 5.7 273 10.7 102260 89
2002-04-25 07:51:00 51°13.93 2°55.569 4 287 10.7 102260 89
2002-04-25 07:51:05 51°13.935 2°55.567 4.4 286 10.7 102260 89
2002-04-25 07:51:10 51°13.941 2°55.564 4.6 284 10.7 102260 89
2002-04-25 07:51:15 51°13.946 2°55.561 5.7 278 10.7 102260 89
2002-04-25 07:51:20 51°13.952 2°55.558 4.1 275 10.7 102270 89
2002-04-25 07:51:26 51°13.958 2°55.555 2.8 299 10.7 102270 89
2002-04-25 07:51:30 51°13.962 2°55.553 4.2 296 10.8 102270 89
2002-04-25 07:51:35 51°13.966 2°55.55 4.2 282 10.8 102270 89
2002-04-25 07:51:40 51°13.971 2°55.548 4.1 270 10.8 102270 88
2002-04-25 07:51:45 51°13.975 2°55.545 2.8 300 10.8 102270 88
2002-04-25 07:51:50 51°13.978 2°55.543 2.5 298 10.7 102260 88
2002-04-25 07:51:55 51°13.982 2°55.541 1.8 290 10.7 102260 88
2002-04-25 07:52:00 51°13.985 2°55.539 2 287 10.8 102260 88
2002-04-25 07:52:06 51°13.99 2°55.537 3.4 298 10.8 102260 88
2002-04-25 07:52:10 51°13.993 2°55.536 3.3 284 10.8 102260 88
2002-04-25 07:52:15 51°13.997 2°55.534 4 264 10.8 102260 88
2002-04-25 07:52:20 51°14.001 2°55.531 5.5 278 10.8 102270 89
2002-04-25 07:52:25 51°14.004 2°55.529 5.3 290 10.8 102270 89
2002-04-25 07:52:30 51°14.009 2°55.526 4.1 260 10.8 102260 88
2002-04-25 07:52:35 51°14.013 2°55.523 5.5 293 10.8 102260 88
2002-04-25 07:52:40 51°14.018 2°55.519 6.5 268 10.8 102260 88
2002-04-25 07:52:45 51°14.022 2°55.516 5.9 270 10.8 102260 88
2002-04-25 07:52:50 51°14.027 2°55.512 6.1 278 10.8 102270 88
2002-04-25 07:52:55 51°14.032 2°55.509 4.8 264 10.8 102270 88
2002-04-25 07:53:00 51°14.037 2°55.505 7.2 283 10.8 102260 88
2002-04-25 07:53:05 51°14.042 2°55.501 8.5 296 10.8 102260 88
2002-04-25 07:53:10 51°14.047 2°55.497 8.8 278 10.8 102260 88
2002-04-25 07:53:15 51°14.053 2°55.493 6.4 277 10.8 102260 88
2002-04-25 07:53:20 51°14.058 2°55.489 6.3 286 10.8 102260 88
2002-04-25 07:53:25 51°14.064 2°55.485 5.5 260 10.8 102260 88
2002-04-25 07:53:30 51°14.069 2°55.48 4.8 279 10.8 102260 88
2002-04-25 07:53:35 51°14.075 2°55.476 3.7 266 10.8 102260 88
2002-04-25 07:53:40 51°14.08 2°55.471 5.5 261 10.8 102270 88
2002-04-25 07:53:46 51°14.087 2°55.466 4.5 271 10.8 102270 88
2002-04-25 07:53:51 51°14.093 2°55.461 3.3 256 10.8 102270 88
2002-04-25 07:53:55 51°14.097 2°55.457 6.8 244 10.8 102270 88
2002-04-25 07:54:00 51°14.103 2°55.452 6.5 266 10.8 102270 88
2002-04-25 07:54:05 51°14.109 2°55.448 6.5 293 10.8 102270 88
2002-04-25 07:54:10 51°14.114 2°55.443 7 279 10.7 102270 88
2002-04-25 07:54:15 51°14.12 2°55.439 8.7 276 10.7 102270 88
2002-04-25 07:54:20 51°14.126 2°55.434 7.9 280 10.8 102270 89
2002-04-25 07:54:26 51°14.132 2°55.43 9.5 291 10.8 102270 89
2002-04-25 07:54:30 51°14.137 2°55.426 7.9 278 10.8 102260 89
2002-04-25 07:54:35 51°14.142 2°55.422 7.2 287 10.8 102260 89
2002-04-25 07:54:40 51°14.148 2°55.417 6.8 288 10.7 102270 89
2002-04-25 07:54:45 51°14.153 2°55.413 8.2 276 10.7 102270 89
2002-04-25 07:54:51 51°14.16 2°55.407 8.1 268 10.7 102270 89
2002-04-25 07:54:55 51°14.164 2°55.403 8.8 274 10.7 102270 89
2002-04-25 07:55:00 51°14.169 2°55.398 7.8 275 10.7 102270 89
2002-04-25 07:55:05 51°14.175 2°55.393 9.5 278 10.7 102270 89
2002-04-25 07:55:10 51°14.18 2°55.388 9.9 281 10.7 102270 89
2002-04-25 07:55:16 51°14.186 2°55.382 9.1 274 10.7 102270 89
2002-04-25 07:55:20 51°14.19 2°55.377 9.5 275 10.7 102270 89
2002-04-25 07:55:25 51°14.194 2°55.372 8.9 275 10.7 102270 89
2002-04-25 07:55:30 51°14.199 2°55.366 10 273 10.7 102270 89
2002-04-25 07:55:35 51°14.204 2°55.36 9.8 271 10.7 102270 89
2002-04-25 07:55:40 51°14.208 2°55.354 9.3 273 10.7 102270 89
2002-04-25 07:55:45 51°14.213 2°55.348 9.5 277 10.7 102270 89
2002-04-25 07:55:50 51°14.217 2°55.342 9.5 280 10.7 102270 89
2002-04-25 07:55:56 51°14.223 2°55.334 9.4 274 10.7 102270 89
2002-04-25 07:56:00 51°14.226 2°55.329 8.6 273 10.7 102260 89
2002-04-25 07:56:05 51°14.231 2°55.323 10.8 272 10.7 102260 89
2002-04-25 07:56:10 51°14.236 2°55.317 10.4 263 10.7 102270 89
2002-04-25 07:56:16 51°14.241 2°55.31 10.1 275 10.7 102270 89
2002-04-25 07:56:20 51°14.245 2°55.305 10.2 273 10.7 102280 89
2002-04-25 07:56:25 51°14.25 2°55.299 9.6 274 10.7 102280 89
2002-04-25 07:56:31 51°14.255 2°55.292 8.4 273 10.7 102270 89
2002-04-25 07:56:36 51°14.26 2°55.286 11 273 10.7 102270 89
2002-04-25 07:56:40 51°14.263 2°55.28 10.1 269 10.7 102270 89
2002-04-25 07:56:46 51°14.269 2°55.272 9.7 270 10.7 102270 89
2002-04-25 07:56:50 51°14.272 2°55.267 8.4 271 10.6 102260 89
2002-04-25 07:56:55 51°14.276 2°55.26 9.5 271 10.6 102260 89
2002-04-25 07:57:00 51°14.28 2°55.252 8.3 260 10.6 102250 89
2002-04-25 07:57:05 51°14.285 2°55.244 8.4 265 10.6 102250 89
2002-04-25 07:57:10 51°14.289 2°55.236 10.5 268 10.6 102270 89
2002-04-25 07:57:15 51°14.294 2°55.227 10.3 267 10.6 102270 89
2002-04-25 07:57:20 51°14.298 2°55.218 10.5 267 10.6 102260 89
2002-04-25 07:57:26 51°14.304 2°55.207 10.3 267 10.6 102260 89
2002-04-25 07:57:30 51°14.308 2°55.199 11.2 267 10.6 102270 89
2002-04-25 07:57:35 51°14.313 2°55.188 8.1 262 10.6 102270 89
2002-04-25 07:57:40 51°14.318 2°55.178 8.9 264 10.6 102260 89
2002-04-25 07:57:45 51°14.324 2°55.167 10.8 267 10.6 102260 89
2002-04-25 07:57:50 51°14.33 2°55.157 10.5 266 10.6 102260 89
2002-04-25 07:57:55 51°14.335 2°55.146 10.5 257 10.6 102260 89
2002-04-25 07:58:00 51°14.34 2°55.135 9.9 271 10.6 102260 89
2002-04-25 07:58:05 51°14.346 2°55.123 10 263 10.6 102260 89
2002-04-25 07:58:11 51°14.353 2°55.109 10.3 268 10.6 102250 89
2002-04-25 07:58:15 51°14.357 2°55.1 10.4 265 10.6 102250 89
2002-04-25 07:58:20 51°14.363 2°55.089 10.9 268 10.6 102260 89
2002-04-25 07:58:25 51°14.37 2°55.077 10.6 269 10.6 102260 89
2002-04-25 07:58:30 51°14.376 2°55.066 11.3 271 10.6 102250 90
2002-04-25 07:58:35 51°14.383 2°55.053 11.5 272 10.6 102250 90
2002-04-25 07:58:40 51°14.39 2°55.041 10.1 268 10.6 102250 90
2002-04-25 07:58:45 51°14.397 2°55.029 10.6 269 10.6 102250 90
2002-04-25 07:58:50 51°14.405 2°55.017 11.2 270 10.6 102250 90
2002-04-25 07:58:55 51°14.414 2°55.004 11.2 279 10.6 102250 90
2002-04-25 07:59:00 51°14.422 2°54.991 11.5 277 10.6 102250 90
2002-04-25 07:59:05 51°14.432 2°54.978 11.5 270 10.6 102250 90
2002-04-25 07:59:10 51°14.442 2°54.964 11 269 10.6 102250 90
2002-04-25 07:59:15 51°14.452 2°54.95 12.6 273 10.6 102250 90
2002-04-25 07:59:20 51°14.462 2°54.936 12.7 273 10.6 102250 90
2002-04-25 07:59:25 51°14.472 2°54.921 13 269 10.6 102250 90
2002-04-25 07:59:30 51°14.483 2°54.906 12.5 272 10.6 102250 90
2002-04-25 07:59:35 51°14.493 2°54.89 11.8 273 10.6 102250 90
2002-04-25 07:59:40 51°14.503 2°54.875 14 271 10.6 102240 90
2002-04-25 07:59:45 51°14.514 2°54.858 12.3 264 10.6 102240 90
2002-04-25 07:59:50 51°14.524 2°54.842 13.3 270 10.6 102240 90
2002-04-25 07:59:55 51°14.535 2°54.826 13.6 272 10.6 102240 90
2002-04-25 08:00:00 51°14.546 2°54.81 13.9 273 10.6 102250 90
2002-04-25 08:00:05 51°14.557 2°54.794 11.9 269 10.6 102250 90
2002-04-25 08:00:10 51°14.568 2°54.778 13.1 272 10.6 102240 90
2002-04-25 08:00:15 51°14.578 2°54.762 14.3 271 10.6 102240 90
2002-04-25 08:00:20 51°14.589 2°54.746 13 271 10.6 102250 90
2002-04-25 08:00:25 51°14.601 2°54.732 13.2 277 10.6 102250 90
2002-04-25 08:00:30 51°14.613 2°54.719 13.3 277 10.6 102250 90
2002-04-25 08:00:35 51°14.625 2°54.706 13.1 279 10.6 102250 90
2002-04-25 08:00:40 51°14.637 2°54.693 12.6 276 10.6 102250 90
2002-04-25 08:00:45 51°14.65 2°54.68 12.6 278 10.6 102250 90
2002-04-25 08:00:50 51°14.662 2°54.666 12.7 283 10.6 102240 90
2002-04-25 08:00:55 51°14.674 2°54.654 10 289 10.6 102240 90
2002-04-25 08:01:00 51°14.688 2°54.646 10 294 10.6 102240 90
2002-04-25 08:01:05 51°14.702 2°54.641 9.8 291 10.6 102240 90
2002-04-25 08:01:10 51°14.716 2°54.639 8.9 295 10.6 102240 90
2002-04-25 08:01:15 51°14.73 2°54.639 9.6 301 10.6 102250 90
2002-04-25 08:01:20 51°14.744 2°54.642 9.3 301 10.6 102260 90
2002-04-25 08:01:25 51°14.757 2°54.647 10.3 293 10.6 102260 90
2002-04-25 08:01:30 51°14.771 2°54.65 8.8 303 10.6 102260 90
2002-04-25 08:01:35 51°14.785 2°54.656 8 301 10.6 102250 90
2002-04-25 08:01:40 51°14.799 2°54.66 7.2 307 10.6 102250 90
2002-04-25 08:01:45 51°14.813 2°54.665 6.6 300 10.6 102260 90
2002-04-25 08:01:50 51°14.827 2°54.67 7.5 300 10.6 102260 90
2002-04-25 08:01:55 51°14.842 2°54.675 6.7 304 10.6 102260 90
2002-04-25 08:02:01 51°14.859 2°54.68 8.7 295 10.6 102260 90
2002-04-25 08:02:06 51°14.873 2°54.684 9.3 300 10.6 102260 90
2002-04-25 08:02:10 51°14.885 2°54.687 9.2 301 10.6 102260 90
2002-04-25 08:02:15 51°14.899 2°54.691 8.7 301 10.6 102250 90
2002-04-25 08:02:20 51°14.914 2°54.694 7.5 294 10.6 102250 90
2002-04-25 08:02:25 51°14.928 2°54.698 8.2 296 10.6 102260 90
2002-04-25 08:02:31 51°14.946 2°54.704 8 294 10.6 102260 90
2002-04-25 08:02:35 51°14.957 2°54.708 7.8 299 10.6 102260 90
2002-04-25 08:02:40 51°14.971 2°54.714 7.8 301 10.6 102260 90
2002-04-25 08:02:45 51°14.985 2°54.719 8.6 303 10.6 102270 90
2002-04-25 08:02:51 51°15.003 2°54.726 8 301 10.6 102270 90
2002-04-25 08:02:55 51°15.014 2°54.73 8.7 295 10.6 102260 90
2002-04-25 08:03:00 51°15.028 2°54.735 8.9 301 10.6 102260 90
2002-04-25 08:03:05 51°15.042 2°54.741 8.9 300 10.6 102260 90
2002-04-25 08:03:10 51°15.057 2°54.745 7.7 295 10.6 102260 90
2002-04-25 08:03:15 51°15.071 2°54.75 8.4 304 10.6 102260 90
2002-04-25 08:03:20 51°15.085 2°54.755 7.7 303 10.6 102260 90
2002-04-25 08:03:25 51°15.099 2°54.76 6.4 301 10.6 102260 90
2002-04-25 08:03:31 51°15.116 2°54.767 7 306 10.6 102260 90
2002-04-25 08:03:35 51°15.127 2°54.771 8.5 302 10.6 102260 90
2002-04-25 08:03:40 51°15.141 2°54.777 9.4 300 10.6 102260 90
2002-04-25 08:03:45 51°15.156 2°54.783 6.6 301 10.6 102260 90
2002-04-25 08:03:50 51°15.17 2°54.789 7.7 306 10.6 102260 90
2002-04-25 08:03:55 51°15.184 2°54.795 8.2 296 10.6 102260 90
2002-04-25 08:04:01 51°15.201 2°54.801 7.7 300 10.6 102260 90
2002-04-25 08:04:05 51°15.212 2°54.806 8.4 296 10.6 102260 90
2002-04-25 08:04:10 51°15.226 2°54.811 7.7 298 10.6 102260 90
2002-04-25 08:04:15 51°15.24 2°54.816 8.3 302 10.6 102260 90
2002-04-25 08:04:20 51°15.255 2°54.822 7.2 326 10.6 102260 90
2002-04-25 08:04:25 51°15.269 2°54.829 6.9 301 10.6 102260 90
2002-04-25 08:04:30 51°15.283 2°54.836 7.1 313 10.6 102260 90
2002-04-25 08:04:35 51°15.297 2°54.843 7.7 307 10.7 102260 90
2002-04-25 08:04:40 51°15.311 2°54.851 6.7 306 10.7 102260 90
2002-04-25 08:04:45 51°15.324 2°54.858 7.7 292 10.7 102260 90
2002-04-25 08:04:50 51°15.338 2°54.867 8 289 10.7 102260 90
2002-04-25 08:04:55 51°15.352 2°54.873 7.1 313 10.6 102260 90
2002-04-25 08:05:00 51°15.366 2°54.88 6.2 303 10.6 102260 90
2002-04-25 08:05:05 51°15.38 2°54.887 6.1 298 10.7 102260 90
2002-04-25 08:05:10 51°15.394 2°54.896 5.6 312 10.7 102260 90
2002-04-25 08:05:15 51°15.408 2°54.904 5.1 307 10.7 102260 90
2002-04-25 08:05:20 51°15.421 2°54.914 7.4 296 10.7 102260 90
2002-04-25 08:05:25 51°15.435 2°54.923 4.9 308 10.7 102260 90
2002-04-25 08:05:31 51°15.45 2°54.936 3.5 298 10.7 102260 90
2002-04-25 08:05:35 51°15.46 2°54.945 4 320 10.7 102260 90
2002-04-25 08:05:40 51°15.472 2°54.959 1.8 329 10.6 102260 90
2002-04-25 08:05:45 51°15.484 2°54.973 1.4 312 10.6 102260 90
2002-04-25 08:05:50 51°15.494 2°54.99 1.3 329 10.7 102260 90
2002-04-25 08:05:55 51°15.506 2°55.005 1.1 315 10.7 102260 90
2002-04-25 08:06:00 51°15.516 2°55.021 2.9 320 10.7 102260 90
2002-04-25 08:06:05 51°15.528 2°55.035 3.1 324 10.7 102260 90
2002-04-25 08:06:10 51°15.539 2°55.05 2.9 304 10.7 102260 90
2002-04-25 08:06:15 51°15.55 2°55.064 1.8 318 10.6 102260 90
2002-04-25 08:06:20 51°15.562 2°55.079 1.9 315 10.7 102260 90
2002-04-25 08:06:25 51°15.573 2°55.094 1.5 326 10.7 102260 90
2002-04-25 08:06:30 51°15.584 2°55.109 1.9 339 10.7 102260 90
2002-04-25 08:06:35 51°15.595 2°55.125 1.5 341 10.7 102260 90
2002-04-25 08:06:40 51°15.606 2°55.141 1.3 319 10.6 102260 90
2002-04-25 08:06:45 51°15.617 2°55.157 1.1 317 10.6 102260 90
2002-04-25 08:06:50 51°15.628 2°55.172 2.5 306 10.6 102260 90
2002-04-25 08:06:55 51°15.639 2°55.188 2.1 310 10.6 102260 90
2002-04-25 08:07:00 51°15.65 2°55.203 2.6 306 10.6 102260 90
2002-04-25 08:07:05 51°15.661 2°55.22 2.5 322 10.6 102260 90
2002-04-25 08:07:10 51°15.672 2°55.234 3.2 314 10.6 102260 90
2002-04-25 08:07:15 51°15.683 2°55.25 2.9 291 10.6 102260 90
2002-04-25 08:07:20 51°15.694 2°55.264 2 305 10.6 102260 90
2002-04-25 08:07:25 51°15.705 2°55.279 3.7 305 10.6 102260 90
2002-04-25 08:07:31 51°15.719 2°55.297 1.6 320 10.6 102260 90
2002-04-25 08:07:35 51°15.727 2°55.309 2 339 10.7 102260 90
2002-04-25 08:07:40 51°15.738 2°55.325 1.4 340 10.7 102260 90
2002-04-25 08:07:45 51°15.748 2°55.341 1.9 340 10.7 102260 90
2002-04-25 08:07:50 51°15.759 2°55.357 1 331 10.6 102260 90
2002-04-25 08:07:55 51°15.769 2°55.374 3.6 302 10.6 102260 90
2002-04-25 08:08:00 51°15.779 2°55.39 2.8 326 10.7 102260 90
2002-04-25 08:08:05 51°15.789 2°55.406 1.4 323 10.7 102260 90
2002-04-25 08:08:11 51°15.802 2°55.424 1.9 338 10.7 102260 90
2002-04-25 08:08:15 51°15.811 2°55.436 2.2 317 10.7 102260 90
2002-04-25 08:08:20 51°15.823 2°55.45 3.7 291 10.6 102260 90
2002-04-25 08:08:25 51°15.834 2°55.464 2.5 319 10.6 102260 90
2002-04-25 08:08:30 51°15.846 2°55.478 4.3 322 10.6 102260 90
2002-04-25 08:08:35 51°15.858 2°55.492 2.9 332 10.6 102260 90
2002-04-25 08:08:40 51°15.869 2°55.507 1.1 334 10.7 102260 90
2002-04-25 08:08:45 51°15.88 2°55.523 1.9 343 10.7 102260 90
2002-04-25 08:08:50 51°15.889 2°55.54 1.6 346 10.6 102260 90
2002-04-25 08:08:55 51°15.899 2°55.557 1.7 354 10.6 102260 90
2002-04-25 08:09:00 51°15.909 2°55.574 1.6 326 10.6 102260 90
2002-04-25 08:09:05 51°15.919 2°55.59 1.4 333 10.6 102260 90
2002-04-25 08:09:10 51°15.93 2°55.607 1.6 332 10.6 102260 90
2002-04-25 08:09:15 51°15.94 2°55.623 1.1 311 10.6 102260 90
2002-04-25 08:09:20 51°15.951 2°55.64 1.3 312 10.6 102260 90
2002-04-25 08:09:25 51°15.961 2°55.657 1 327 10.6 102260 90
2002-04-25 08:09:31 51°15.973 2°55.676 1.1 331 10.6 102260 90
2002-04-25 08:09:35 51°15.981 2°55.69 0.7 324 10.6 102260 90
2002-04-25 08:09:40 51°15.992 2°55.706 2.4 329 10.6 102250 90
2002-04-25 08:09:45 51°16.001 2°55.724 2.7 309 10.6 102250 90
2002-04-25 08:09:51 51°16.014 2°55.743 3.4 301 10.6 102250 90
2002-04-25 08:09:55 51°16.022 2°55.756 3.5 312 10.6 102260 90
2002-04-25 08:10:00 51°16.033 2°55.773 2.2 322 10.6 102260 90
2002-04-25 08:10:05 51°16.044 2°55.788 2 313 10.6 102260 90
2002-04-25 08:10:10 51°16.055 2°55.803 2.2 301 10.6 102260 90
2002-04-25 08:10:15 51°16.067 2°55.818 2.6 323 10.6 102260 90
2002-04-25 08:10:20 51°16.078 2°55.833 2.1 330 10.6 102250 90
2002-04-25 08:10:25 51°16.089 2°55.848 1.7 327 10.6 102250 90
2002-04-25 08:10:31 51°16.103 2°55.866 1.7 339 10.6 102250 90
2002-04-25 08:10:35 51°16.111 2°55.88 1.1 327 10.6 102250 90
2002-04-25 08:10:40 51°16.122 2°55.895 1.3 327 10.6 102250 90
2002-04-25 08:10:45 51°16.131 2°55.913 1.7 320 10.6 102250 90
2002-04-25 08:10:50 51°16.141 2°55.93 0.9 340 10.6 102250 90
2002-04-25 08:10:55 51°16.151 2°55.949 3.5 316 10.6 102250 90
2002-04-25 08:11:00 51°16.162 2°55.966 2.6 308 10.6 102250 90
2002-04-25 08:11:05 51°16.172 2°55.985 2.2 327 10.6 102250 90
2002-04-25 08:11:10 51°16.185 2°56.002 2 323 10.6 102250 90
2002-04-25 08:11:15 51°16.196 2°56.021 4 318 10.6 102250 90
2002-04-25 08:11:20 51°16.21 2°56.038 3.7 306 10.6 102250 90
2002-04-25 08:11:25 51°16.223 2°56.056 3.8 299 10.6 102250 90
2002-04-25 08:11:30 51°16.236 2°56.075 3.3 312 10.6 102250 90
2002-04-25 08:11:35 51°16.248 2°56.095 3.2 299 10.6 102250 90
2002-04-25 08:11:40 51°16.26 2°56.116 1.6 308 10.6 102250 90
2002-04-25 08:11:45 51°16.271 2°56.137 1.2 320 10.6 102250 90
2002-04-25 08:11:50 51°16.282 2°56.16 3.2 306 10.6 102250 90
2002-04-25 08:11:55 51°16.292 2°56.183 1.7 318 10.6 102250 90
2002-04-25 08:12:00 51°16.301 2°56.208 1 345 10.6 102250 90
2002-04-25 08:12:05 51°16.31 2°56.233 0.9 340 10.6 102250 90
2002-04-25 08:12:10 51°16.319 2°56.259 0.9 340 10.6 102250 90
2002-04-25 08:12:15 51°16.328 2°56.283 1 334 10.6 102250 90
2002-04-25 08:12:20 51°16.336 2°56.309 1.7 298 10.6 102250 90
2002-04-25 08:12:25 51°16.345 2°56.335 2.4 305 10.6 102260 90
2002-04-25 08:12:30 51°16.354 2°56.361 2.9 297 10.7 102250 90
2002-04-25 08:12:35 51°16.363 2°56.386 2.7 300 10.7 102250 90
2002-04-25 08:12:40 51°16.372 2°56.411 1.7 333 10.7 102260 90
2002-04-25 08:12:45 51°16.381 2°56.438 1.2 314 10.7 102260 90
2002-04-25 08:12:50 51°16.389 2°56.464 2.4 298 10.7 102250 90
2002-04-25 08:12:55 51°16.396 2°56.492 2.4 294 10.7 102250 90
2002-04-25 08:13:00 51°16.401 2°56.52 2.4 293 10.7 102250 90
2002-04-25 08:13:05 51°16.407 2°56.547 2.2 311 10.7 102250 90
2002-04-25 08:13:10 51°16.412 2°56.574 0.9 345 10.7 102260 90
2002-04-25 08:13:15 51°16.418 2°56.598 1.1 346 10.7 102260 90
2002-04-25 08:13:20 51°16.425 2°56.621 2.3 348 10.7 102250 90
2002-04-25 08:13:25 51°16.431 2°56.643 2.8 351 10.7 102250 90
2002-04-25 08:13:30 51°16.438 2°56.662 3.2 357 10.7 102250 90
2002-04-25 08:13:35 51°16.444 2°56.681 3.2 1 10.7 102250 90
2002-04-25 08:13:40 51°16.449 2°56.699 3.4 7 10.7 102250 90
2002-04-25 08:13:45 51°16.454 2°56.717 3.5 29 10.8 102250 90
2002-04-25 08:13:51 51°16.459 2°56.736 3 23 10.8 102250 90
2002-04-25 08:13:55 51°16.461 2°56.749 3.3 32 10.8 102250 90
2002-04-25 08:14:00 51°16.464 2°56.764 3.6 31 10.8 102250 90
2002-04-25 08:14:05 51°16.466 2°56.778 4.4 40 10.7 102250 89
2002-04-25 08:14:10 51°16.468 2°56.791 5.1 30 10.7 102250 89
2002-04-25 08:14:15 51°16.471 2°56.803 5 31 10.8 102250 89
2002-04-25 08:14:20 51°16.474 2°56.814 5.2 17 10.8 102250 89
2002-04-25 08:14:25 51°16.477 2°56.824 5.6 18 10.8 102250 89
2002-04-25 08:14:30 51°16.48 2°56.833 5.4 11 10.7 102260 89
2002-04-25 08:14:35 51°16.484 2°56.841 5.6 13 10.7 102260 89
2002-04-25 08:14:40 51°16.487 2°56.849 6.1 14 10.7 102260 89
2002-04-25 08:14:45 51°16.49 2°56.856 5.8 18 10.7 102260 89
2002-04-25 08:14:50 51°16.493 2°56.862 6.5 4 10.7 102260 89
2002-04-25 08:14:55 51°16.496 2°56.869 6.8   10.7 102250 89
2002-04-25 08:15:00 51°16.5 2°56.874 6.7 357 10.7 102250 89
2002-04-25 08:15:05 51°16.503 2°56.88 7.2 9 10.7 102250 89
2002-04-25 08:15:10 51°16.505 2°56.885 5.8 356 10.7 102250 89
2002-04-25 08:15:15 51°16.508 2°56.89 6.3 358 10.7 102250 89
2002-04-25 08:15:20 51°16.512 2°56.895 5.7 350 10.7 102240 89
2002-04-25 08:15:25 51°16.515 2°56.899 6.4 346 10.7 102240 89
2002-04-25 08:15:30 51°16.518 2°56.903 6.4 354 10.7 102240 89
2002-04-25 08:15:35 51°16.521 2°56.907 5.8 357 10.7 102240 89
2002-04-25 08:15:40 51°16.523 2°56.91 6.5 355 10.7 102250 89
2002-04-25 08:15:45 51°16.526 2°56.914 5.8 352 10.7 102250 89
2002-04-25 08:15:51 51°16.53 2°56.918 3.6 332 10.7 102250 90
2002-04-25 08:15:55 51°16.532 2°56.92 3.6 336 10.7 102250 90
2002-04-25 08:16:00 51°16.535 2°56.923 4 337 10.7 102250 90
2002-04-25 08:16:05 51°16.538 2°56.925 1.8 350 10.7 102240 90
2002-04-25 08:16:10 51°16.542 2°56.928 3.3 1 10.7 102240 90
2002-04-25 08:16:15 51°16.547 2°56.932 2.2 348 10.7 102240 90
2002-04-25 08:16:20 51°16.552 2°56.935 3.4 338 10.7 102240 89
2002-04-25 08:16:25 51°16.558 2°56.94 2.9 344 10.7 102240 89
2002-04-25 08:16:30 51°16.564 2°56.945 1.1 344 10.7 102240 89
2002-04-25 08:16:35 51°16.571 2°56.951 1.7 347 10.7 102240 89
2002-04-25 08:16:40 51°16.578 2°56.958 3.2 346 10.7 102240 89
2002-04-25 08:16:45 51°16.586 2°56.968 1.9 333 10.7 102240 90
2002-04-25 08:16:50 51°16.594 2°56.979 0.7 329 10.7 102240 90
2002-04-25 08:16:55 51°16.603 2°56.994 1.9 326 10.7 102240 90
2002-04-25 08:17:00 51°16.614 2°57.008 1.6 335 10.7 102250 90
2002-04-25 08:17:05 51°16.625 2°57.023 2.5 311 10.7 102250 90
2002-04-25 08:17:10 51°16.636 2°57.04 4.9 289 10.7 102250 90
2002-04-25 08:17:15 51°16.648 2°57.057 3.9 303 10.7 102250 90
2002-04-25 08:17:20 51°16.66 2°57.075 3.4 321 10.7 102250 90
2002-04-25 08:17:25 51°16.671 2°57.094 1.3 345 10.7 102250 90
2002-04-25 08:17:30 51°16.682 2°57.116 1.9 346 10.7 102240 90
2002-04-25 08:17:35 51°16.691 2°57.139 1.6 321 10.7 102240 90
2002-04-25 08:17:40 51°16.702 2°57.16 3.7 291 10.7 102250 90
2002-04-25 08:17:45 51°16.713 2°57.182 2.9 302 10.7 102250 90
2002-04-25 08:17:50 51°16.725 2°57.203 1.4 335 10.7 102240 90
2002-04-25 08:17:55 51°16.736 2°57.226 1.4 323 10.7 102240 90
2002-04-25 08:18:00 51°16.746 2°57.249 2 323 10.7 102240 90
2002-04-25 08:18:05 51°16.757 2°57.271 2.6 319 10.7 102240 90
2002-04-25 08:18:10 51°16.77 2°57.291 3.9 307 10.7 102240 90
2002-04-25 08:18:15 51°16.782 2°57.312 5.5 293 10.7 102240 90
2002-04-25 08:18:20 51°16.797 2°57.328 5.8 297 10.7 102240 90
2002-04-25 08:18:25 51°16.81 2°57.347 8.1 300 10.7 102250 90
2002-04-25 08:18:31 51°16.828 2°57.367 5.4 306 10.7 102250 90
2002-04-25 08:18:35 51°16.839 2°57.382 5.6 288 10.7 102240 90
2002-04-25 08:18:40 51°16.853 2°57.4 4.1 304 10.7 102240 90
2002-04-25 08:18:45 51°16.866 2°57.421 3.5 305 10.7 102240 90
2002-04-25 08:18:51 51°16.88 2°57.447 3.9 296 10.8 102240 90
2002-04-25 08:18:55 51°16.888 2°57.467 2.9 286 10.8 102240 90
2002-04-25 08:19:00 51°16.898 2°57.491 2.1 309 10.8 102240 90
2002-04-25 08:19:05 51°16.906 2°57.517 1.4 313 10.8 102250 90
2002-04-25 08:19:10 51°16.914 2°57.543 2.2 301 10.8 102250 90
2002-04-25 08:19:15 51°16.923 2°57.568 2.9 307 10.8 102250 90
2002-04-25 08:19:20 51°16.933 2°57.593 1.7 315 10.8 102250 90
2002-04-25 08:19:25 51°16.943 2°57.618 1.5 326 10.8 102250 90
2002-04-25 08:19:30 51°16.953 2°57.642 2.5 304 10.8 102250 90
2002-04-25 08:19:35 51°16.963 2°57.666 2.8 316 10.8 102250 90
2002-04-25 08:19:40 51°16.973 2°57.69 2.8 324 10.8 102250 89
2002-04-25 08:19:45 51°16.984 2°57.714 2.9 325 10.8 102250 89
2002-04-25 08:19:51 51°16.996 2°57.743 2.6 318 10.8 102250 89
2002-04-25 08:19:55 51°17.004 2°57.762 2.2 302 10.8 102250 89
2002-04-25 08:20:00 51°17.015 2°57.786 3.7 302 10.8 102250 89
2002-04-25 08:20:05 51°17.027 2°57.809 2.8 331 10.8 102250 89
2002-04-25 08:20:10 51°17.039 2°57.832 1.3 315 10.8 102250 89
2002-04-25 08:20:15 51°17.05 2°57.855 3.6 302 10.8 102250 89
2002-04-25 08:20:20 51°17.061 2°57.878 2.5 318 10.8 102250 89
2002-04-25 08:20:25 51°17.071 2°57.903 4.3 300 10.8 102250 89
2002-04-25 08:20:30 51°17.083 2°57.926 4.8 297 10.9 102250 89
2002-04-25 08:20:36 51°17.097 2°57.952 3.9 309 10.9 102250 89
2002-04-25 08:20:40 51°17.106 2°57.971 3.3 305 10.9 102250 89
2002-04-25 08:20:45 51°17.117 2°57.994 3.6 307 10.9 102250 90
2002-04-25 08:20:50 51°17.127 2°58.018 2.8 304 10.9 102250 89
2002-04-25 08:20:55 51°17.137 2°58.042 2.3 304 10.9 102250 89
2002-04-25 08:21:00 51°17.146 2°58.068 1.1 342 10.9 102250 89
2002-04-25 08:21:05 51°17.154 2°58.094 0.3 325 10.9 102250 89
2002-04-25 08:21:11 51°17.164 2°58.125 1.1 11 10.9 102250 89
2002-04-25 08:21:15 51°17.17 2°58.147 0.5 333 10.9 102250 89
2002-04-25 08:21:20 51°17.178 2°58.173 1.3 327 10.9 102250 89
2002-04-25 08:21:25 51°17.186 2°58.199 2.3 353 10.9 102250 89
2002-04-25 08:21:30 51°17.194 2°58.225 1.4 343 10.9 102250 89
2002-04-25 08:21:35 51°17.202 2°58.251 1.5 340 10.9 102250 89
2002-04-25 08:21:40 51°17.211 2°58.277 1.1 345 10.9 102250 89
2002-04-25 08:21:45 51°17.22 2°58.303 1.5 324 10.9 102250 89
2002-04-25 08:21:50 51°17.23 2°58.328 1.1 341 10.9 102250 89
2002-04-25 08:21:55 51°17.238 2°58.354 0.8 338 10.9 102250 89
2002-04-25 08:22:00 51°17.246 2°58.38 0.8 305 10.9 102250 89
2002-04-25 08:22:05 51°17.254 2°58.406 0.4 322 10.9 102250 89
2002-04-25 08:22:10 51°17.262 2°58.433 2 293 10.9 102250 89
2002-04-25 08:22:15 51°17.27 2°58.459 3 299 10.9 102250 89
2002-04-25 08:22:20 51°17.278 2°58.486 1.7 341 10.9 102250 89
2002-04-25 08:22:25 51°17.285 2°58.513 0.7 310 10.9 102250 89
2002-04-25 08:22:31 51°17.294 2°58.545 1.5 298 10.9 102250 89
2002-04-25 08:22:35 51°17.3 2°58.567 1.1 344 10.9 102250 89
2002-04-25 08:22:40 51°17.308 2°58.594 0.8 346 10.9 102250 89
2002-04-25 08:22:45 51°17.315 2°58.621 1.5 341 10.9 102250 89
2002-04-25 08:22:50 51°17.323 2°58.647 1.9 336 10.9 102250 89
2002-04-25 08:22:55 51°17.331 2°58.673 1.7 354 10.9 102250 89
2002-04-25 08:23:00 51°17.34 2°58.699 1 327 10.9 102250 89
2002-04-25 08:23:05 51°17.348 2°58.725 1.2 324 10.9 102250 89
2002-04-25 08:23:10 51°17.357 2°58.751 1.7 301 10.9 102250 88
2002-04-25 08:23:15 51°17.366 2°58.777 1.5 277 10.9 102250 88
2002-04-25 08:23:20 51°17.374 2°58.804 2.1 328 10.9 102250 88
2002-04-25 08:23:26 51°17.383 2°58.836 1.1 3 10.9 102250 88
2002-04-25 08:23:30 51°17.388 2°58.858 1.7 332 10.9 102250 88
2002-04-25 08:23:35 51°17.396 2°58.885 1.2 349 10.9 102250 88
2002-04-25 08:23:40 51°17.403 2°58.913 3.1 360 10.9 102250 89
2002-04-25 08:23:45 51°17.41 2°58.94 1.3 327 10.9 102250 89
2002-04-25 08:23:50 51°17.417 2°58.967 0.7 329 10.9 102250 89
2002-04-25 08:23:55 51°17.424 2°58.993 1.4 330 10.9 102250 89
2002-04-25 08:24:00 51°17.432 2°59.019 1 345 10.8 102260 89
2002-04-25 08:24:05 51°17.441 2°59.045 4 291 10.8 102260 89
2002-04-25 08:24:11 51°17.452 2°59.075 2.1 349 10.8 102260 89
2002-04-25 08:24:15 51°17.46 2°59.095 1.9 332 10.9 102250 89
2002-04-25 08:24:20 51°17.469 2°59.12 1.4 322 10.9 102250 89
2002-04-25 08:24:25 51°17.477 2°59.146 1 338 10.9 102250 89
2002-04-25 08:24:30 51°17.484 2°59.173 0.8 344 10.9 102250 89
2002-04-25 08:24:36 51°17.492 2°59.206 1 343 10.9 102250 89
2002-04-25 08:24:40 51°17.497 2°59.228 1.3 5 10.9 102260 89
2002-04-25 08:24:45 51°17.503 2°59.255 1.5 317 10.9 102260 89
2002-04-25 08:24:50 51°17.509 2°59.282 1.3 302 10.9 102250 89
2002-04-25 08:24:55 51°17.517 2°59.309 2.6 302 10.9 102250 89
2002-04-25 08:25:00 51°17.524 2°59.336 2.8 302 10.9 102250 89
2002-04-25 08:25:05 51°17.531 2°59.363 1 334 10.9 102250 89
2002-04-25 08:25:10 51°17.538 2°59.39 0.8 324 10.9 102260 89
2002-04-25 08:25:15 51°17.546 2°59.416 0.9 320 10.9 102260 89
2002-04-25 08:25:20 51°17.554 2°59.443 1.8 340 10.9 102260 89
2002-04-25 08:25:25 51°17.563 2°59.468 1 349 10.9 102250 89
2002-04-25 08:25:30 51°17.571 2°59.494 2.5 353 10.9 102250 89
2002-04-25 08:25:35 51°17.579 2°59.52 1.3 347 10.9 102250 89
2002-04-25 08:25:40 51°17.587 2°59.546 1 319 10.9 102250 89
2002-04-25 08:25:45 51°17.596 2°59.571 2.2 310 10.9 102250 89
2002-04-25 08:25:50 51°17.604 2°59.597 1.9 324 10.9 102250 89
2002-04-25 08:25:55 51°17.613 2°59.622 2.3 293 10.9 102250 89
2002-04-25 08:26:01 51°17.623 2°59.654 1.3 338 10.9 102250 89
2002-04-25 08:26:05 51°17.63 2°59.675 1.5 328 10.9 102250 89
2002-04-25 08:26:11 51°17.64 2°59.706 1.7 329 11 102250 89
2002-04-25 08:26:15 51°17.647 2°59.727 1.4 345 11 102250 89
2002-04-25 08:26:20 51°17.655 2°59.752 1.8 321 11.2 102250 89
2002-04-25 08:26:26 51°17.666 2°59.783 1.8 353 11.2 102250 89
2002-04-25 08:26:31 51°17.676 2°59.809 1 348 10.9 102250 89
2002-04-25 08:26:35 51°17.684 2°59.829 1.3 340 10.9 102250 89
2002-04-25 08:26:40 51°17.693 2°59.854 2 327 10.9 102250 89
2002-04-25 08:26:45 51°17.702 2°59.879 0.8 347 10.9 102250 89
2002-04-25 08:26:50 51°17.711 2°59.905 0.7 304 10.9 102250 89
2002-04-25 08:26:55 51°17.719 2°59.932 1 318 10.9 102250 89
2002-04-25 08:27:00 51°17.727 2°59.959 0.7 320 10.9 102250 89
2002-04-25 08:27:05 51°17.734 2°59.985 0.6 338 10.9 102250 89
2002-04-25 08:27:11 51°17.742 3°0.018 0.8 326 10.9 102250 89
2002-04-25 08:27:15 51°17.748 3°0.04 1 341 10.9 102250 89
2002-04-25 08:27:20 51°17.755 3°0.067 1.3 343 10.9 102250 89
2002-04-25 08:27:26 51°17.765 3°0.099 1.3 316 10.9 102250 89
2002-04-25 08:27:30 51°17.771 3°0.121 2.1 320 10.9 102250 89
2002-04-25 08:27:35 51°17.779 3°0.148 1.5 310 10.9 102250 89
2002-04-25 08:27:40 51°17.787 3°0.174 1.2 307 10.9 102250 89
2002-04-25 08:27:45 51°17.793 3°0.202 1.2 3 10.9 102250 89
2002-04-25 08:27:51 51°17.802 3°0.235 1.5 21 10.9 102250 89
2002-04-25 08:27:55 51°17.806 3°0.257 2.1 15 10.9 102250 89
2002-04-25 08:28:01 51°17.814 3°0.29 1.8 3 11 102250 89
2002-04-25 08:28:05 51°17.819 3°0.312 2.3 3 11 102250 89
2002-04-25 08:28:10 51°17.825 3°0.339 2.1 344 11 102260 89
2002-04-25 08:28:15 51°17.833 3°0.366 0.8 340 11 102260 89
2002-04-25 08:28:20 51°17.841 3°0.393 2 322 11 102260 89
2002-04-25 08:28:25 51°17.85 3°0.419 1.2 322 11 102250 89
2002-04-25 08:28:30 51°17.857 3°0.446 2.1 335 11 102250 89
2002-04-25 08:28:35 51°17.865 3°0.472 1.5 280 11 102250 89
2002-04-25 08:28:40 51°17.871 3°0.5 0.9 341 11 102250 89
2002-04-25 08:28:45 51°17.878 3°0.528 0.8 291 11 102250 89
2002-04-25 08:28:50 51°17.884 3°0.556 0.5 320 11 102250 89
2002-04-25 08:28:55 51°17.89 3°0.584 2 342 11 102250 89
2002-04-25 08:29:00 51°17.896 3°0.612 1.2 343 11 102260 89
2002-04-25 08:29:05 51°17.903 3°0.639 1 340 11 102260 89
2002-04-25 08:29:11 51°17.911 3°0.672 1.3 319 11 102250 89
2002-04-25 08:29:15 51°17.917 3°0.693 1.6 318 11 102250 89
2002-04-25 08:29:20 51°17.925 3°0.72 1.6 322 11 102250 89
2002-04-25 08:29:25 51°17.931 3°0.747 1 330 11 102250 89
2002-04-25 08:29:31 51°17.94 3°0.779 1.4 340 11 102250 88
2002-04-25 08:29:36 51°17.946 3°0.807 1.2 335 11 102250 88
2002-04-25 08:29:40 51°17.952 3°0.829 0.6 326 10.9 102250 88
2002-04-25 08:29:45 51°17.958 3°0.858 0.8 337 10.9 102250 88
2002-04-25 08:29:50 51°17.964 3°0.886 2.3 346 10.9 102250 88
2002-04-25 08:29:55 51°17.97 3°0.914 1.9 345 10.9 102250 88
2002-04-25 08:30:00 51°17.975 3°0.942 2.1 357 10.9 102250 88
2002-04-25 08:30:05 51°17.98 3°0.971 0.8 339 10.9 102250 88
2002-04-25 08:30:11 51°17.986 3°1.005 1 353 10.9 102260 88
2002-04-25 08:30:15 51°17.992 3°1.026 0.8 322 10.9 102260 88
2002-04-25 08:30:20 51°17.999 3°1.053 2.2 319 10.9 102260 88
2002-04-25 08:30:25 51°18.007 3°1.08 1 340 10.9 102260 88
2002-04-25 08:30:30 51°18.014 3°1.107 1.2 308 10.9 102260 88
2002-04-25 08:30:35 51°18.021 3°1.134 0.9 332 10.9 102260 88
2002-04-25 08:30:40 51°18.027 3°1.162 0.6 333 10.9 102260 88
2002-04-25 08:30:45 51°18.034 3°1.189 1.2 346 10.9 102260 88
2002-04-25 08:30:51 51°18.041 3°1.22 2.6 349 10.9 102260 88
2002-04-25 08:30:56 51°18.047 3°1.245 1.1 314 10.9 102250 88
2002-04-25 08:31:00 51°18.052 3°1.265 1.9 344 10.9 102260 88
2002-04-25 08:31:05 51°18.059 3°1.29 1.4 343 10.9 102260 88
2002-04-25 08:31:11 51°18.067 3°1.318 1.9 351 10.9 102260 88
2002-04-25 08:31:15 51°18.072 3°1.336 3 356 10.9 102260 88
2002-04-25 08:31:20 51°18.079 3°1.358 2 341 10.9 102260 88
2002-04-25 08:31:25 51°18.086 3°1.38 2.4 356 10.9 102260 88
2002-04-25 08:31:31 51°18.094 3°1.404 1.7 344 10.9 102250 89
2002-04-25 08:31:35 51°18.099 3°1.419 1.3 348 10.9 102250 89
2002-04-25 08:31:40 51°18.105 3°1.437 2.6 353 10.9 102260 88
2002-04-25 08:31:45 51°18.111 3°1.453 3.2 353 10.9 102260 88
2002-04-25 08:31:50 51°18.117 3°1.468 0.8 340 10.9 102260 88
2002-04-25 08:31:55 51°18.123 3°1.481 4.1 352 10.9 102260 88
2002-04-25 08:32:00 51°18.128 3°1.495 4.9 1 10.9 102250 88
2002-04-25 08:32:06 51°18.134 3°1.509 5.6 1 10.9 102250 88
2002-04-25 08:32:11 51°18.139 3°1.52 5.7 359 10.9 102250 89
2002-04-25 08:32:15 51°18.143 3°1.529 5.1 6 10.9 102250 89
2002-04-25 08:32:20 51°18.147 3°1.539 5.6 7 10.9 102250 89
2002-04-25 08:32:25 51°18.151 3°1.549 5.2 14 10.9 102250 89
2002-04-25 08:32:31 51°18.155 3°1.56 5.6 16 10.9 102250 89
2002-04-25 08:32:35 51°18.158 3°1.567 4.9 7 10.9 102250 89
2002-04-25 08:32:40 51°18.161 3°1.576 4.6 9 10.9 102250 89
2002-04-25 08:32:45 51°18.164 3°1.585 5.6 16 10.9 102250 89
2002-04-25 08:32:50 51°18.167 3°1.594 5.3 31 10.9 102250 89
2002-04-25 08:32:55 51°18.169 3°1.602 5.8 25 10.9 102250 89
2002-04-25 08:33:00 51°18.171 3°1.61 6.2 24 10.9 102250 89
2002-04-25 08:33:05 51°18.173 3°1.618 6.7 27 10.9 102250 89
2002-04-25 08:33:10 51°18.176 3°1.625 5.6 26 10.9 102250 89
2002-04-25 08:33:15 51°18.177 3°1.632 7.3 25 10.9 102250 89
2002-04-25 08:33:20 51°18.179 3°1.64 7.1 28 10.9 102250 89
2002-04-25 08:33:25 51°18.18 3°1.647 6.2 28 10.9 102250 89
2002-04-25 08:33:30 51°18.182 3°1.654 6.9 28 10.9 102250 89
2002-04-25 08:33:35 51°18.184 3°1.661 6.7 33 10.9 102250 89
2002-04-25 08:33:40 51°18.185 3°1.668 6.5 31 10.8 102250 89
2002-04-25 08:33:45 51°18.186 3°1.675 6.9 32 10.8 102250 89
2002-04-25 08:33:50 51°18.187 3°1.682 6.9 35 10.8 102250 89
2002-04-25 08:33:55 51°18.189 3°1.688 6.9 35 10.8 102250 89
2002-04-25 08:34:00 51°18.189 3°1.695 6.8 33 10.8 102260 89
2002-04-25 08:34:05 51°18.191 3°1.702 6.7 36 10.8 102260 89
2002-04-25 08:34:10 51°18.192 3°1.708 7.1 35 10.8 102260 89
2002-04-25 08:34:15 51°18.193 3°1.714 7.4 37 10.8 102260 89
2002-04-25 08:34:20 51°18.193 3°1.72 7 35 10.8 102260 89
2002-04-25 08:34:25 51°18.195 3°1.726 6.7 38 10.8 102260 89
2002-04-25 08:34:30 51°18.195 3°1.732 7.1 37 10.8 102260 89
2002-04-25 08:34:35 51°18.196 3°1.738 7.6 37 10.8 102260 89
2002-04-25 08:34:40 51°18.197 3°1.743 7 40 10.8 102260 89
2002-04-25 08:34:45 51°18.197 3°1.749 7.4 36 10.8 102260 89
2002-04-25 08:34:50 51°18.198 3°1.754 7.4 41 10.7 102260 89
2002-04-25 08:34:55 51°18.198 3°1.758 6.9 39 10.7 102260 89
2002-04-25 08:35:00 51°18.199 3°1.762 7.1 320 10.7 102260 89
2002-04-25 08:35:05 51°18.199 3°1.764 6.5 42 10.7 102260 89
2002-04-25 08:35:10 51°18.199 3°1.766 7 40 10.7 102260 89
2002-04-25 08:35:15 51°18.199 3°1.768 7.7 38 10.7 102260 89
2002-04-25 08:35:20 51°18.199 3°1.77 8.3 35 10.7 102260 89
2002-04-25 08:35:25 51°18.199 3°1.773 8 42 10.7 102260 89
2002-04-25 08:35:30 51°18.199 3°1.775 8.2 321 10.7 102260 89
2002-04-25 08:35:35 51°18.199 3°1.777 8.4 38 10.7 102260 89
2002-04-25 08:35:40 51°18.199 3°1.779 8.4 43 10.7 102260 89
2002-04-25 08:35:45 51°18.199 3°1.781 8.7 41 10.7 102260 89
2002-04-25 08:35:50 51°18.199 3°1.784 7.3 40 10.7 102260 90
2002-04-25 08:35:55 51°18.199 3°1.787 7.7 39 10.7 102260 90
2002-04-25 08:36:00 51°18.199 3°1.789 7.5 37 10.7 102260 89
2002-04-25 08:36:05 51°18.2 3°1.792 6.4 37 10.7 102260 89
2002-04-25 08:36:11 51°18.2 3°1.795 7.1 38 11 102260 89
2002-04-25 08:36:15 51°18.2 3°1.797 7.1 42 11 102260 89
2002-04-25 08:36:20 51°18.2 3°1.8 8 32 10.7 102270 89
2002-04-25 08:36:25 51°18.2 3°1.803 7.6 39 10.7 102270 89
2002-04-25 08:36:30 51°18.2 3°1.806 7.8 39 10.7 102270 89
2002-04-25 08:36:35 51°18.2 3°1.809 8.3 39 10.7 102270 89
2002-04-25 08:36:40 51°18.2 3°1.812 8.4 40 10.7 102270 90
2002-04-25 08:36:45 51°18.201 3°1.815 6.9 40 10.7 102270 90
2002-04-25 08:36:50 51°18.201 3°1.818 8 39 10.7 102270 90
2002-04-25 08:36:55 51°18.201 3°1.821 6.9 33 10.7 102270 90
2002-04-25 08:37:00 51°18.202 3°1.824 7.2 36 10.7 102270 90
2002-04-25 08:37:05 51°18.202 3°1.827 6.5 24 10.7 102270 90
2002-04-25 08:37:10 51°18.202 3°1.831 6.7 29 10.7 102270 90
2002-04-25 08:37:15 51°18.203 3°1.834 7 34 10.7 102270 90
2002-04-25 08:37:20 51°18.203 3°1.837 6.6 30 10.7 102260 90
2002-04-25 08:37:26 51°18.204 3°1.841 8.1 31 10.7 102260 90
2002-04-25 08:37:30 51°18.204 3°1.843 8 31 10.7 102260 90
2002-04-25 08:37:35 51°18.205 3°1.847 7.2 29 10.7 102260 90
2002-04-25 08:37:40 51°18.205 3°1.85 7.9 30 10.7 102260 90
2002-04-25 08:37:45 51°18.206 3°1.853 7.8 31 10.7 102260 90
2002-04-25 08:37:50 51°18.206 3°1.856 7.4 31 10.7 102260 90
2002-04-25 08:37:55 51°18.207 3°1.86 7.3 31 10.7 102260 90
2002-04-25 08:38:00 51°18.207 3°1.863 8.2 26 10.6 102260 90
2002-04-25 08:38:05 51°18.208 3°1.866 7.9 20 10.6 102260 90
2002-04-25 08:38:11 51°18.208 3°1.87 8.3 22 10.6 102260 90
2002-04-25 08:38:15 51°18.209 3°1.873 7 23 10.6 102260 90
2002-04-25 08:38:20 51°18.21 3°1.876 7.3 19 10.7 102270 90
2002-04-25 08:38:25 51°18.21 3°1.88 6.7 27 10.7 102270 90
2002-04-25 08:38:30 51°18.211 3°1.883 7.7 22 10.6 102260 90
2002-04-25 08:38:35 51°18.212 3°1.886 7.6 19 10.6 102260 90
2002-04-25 08:38:40 51°18.212 3°1.89 8.3 21 10.6 102260 90
2002-04-25 08:38:45 51°18.213 3°1.893 7.8 24 10.6 102260 90
2002-04-25 08:38:50 51°18.214 3°1.896 7.5 23 10.6 102260 90
2002-04-25 08:38:55 51°18.215 3°1.9 8.2 12 10.6 102260 90
2002-04-25 08:39:00 51°18.215 3°1.903 7.8 12 10.6 102260 90
2002-04-25 08:39:05 51°18.216 3°1.907 7.8 19 10.6 102260 90
2002-04-25 08:39:11 51°18.217 3°1.911 8.2 17 10.6 102260 90
2002-04-25 08:39:15 51°18.218 3°1.914 9.2 19 10.6 102260 90
2002-04-25 08:39:20 51°18.219 3°1.917 8 18 10.6 102260 90
2002-04-25 08:39:25 51°18.219 3°1.92 8 21 10.6 102260 90
2002-04-25 08:39:30 51°18.22 3°1.924 8.3 15 10.6 102260 90
2002-04-25 08:39:36 51°18.221 3°1.928 8.5 20 10.6 102260 90
2002-04-25 08:39:41 51°18.222 3°1.931 8.1 12 10.6 102260 90
2002-04-25 08:39:45 51°18.223 3°1.933 7.5 9 10.6 102260 90
2002-04-25 08:39:50 51°18.223 3°1.937 6.9 5 10.6 102260 90
2002-04-25 08:39:55 51°18.224 3°1.94 7.1 4 10.6 102260 90
2002-04-25 08:40:00 51°18.225 3°1.943 6.9 5 10.6 102260 90
2002-04-25 08:40:05 51°18.226 3°1.946 6 3 10.6 102260 90
2002-04-25 08:40:10 51°18.227 3°1.95 5.9 9 10.6 102260 90
2002-04-25 08:40:15 51°18.228 3°1.953 6.4 9 10.6 102260 90
2002-04-25 08:40:20 51°18.229 3°1.956 6.3 11 10.6 102260 90
2002-04-25 08:40:25 51°18.23 3°1.959 6.5 16 10.6 102260 90
2002-04-25 08:40:30 51°18.231 3°1.962 7.1 13 10.6 102260 90
2002-04-25 08:40:35 51°18.232 3°1.965 7.6 20 10.6 102260 90
2002-04-25 08:40:40 51°18.233 3°1.968 6.9 15 10.7 102260 90
2002-04-25 08:40:45 51°18.234 3°1.971 8.3 4 10.7 102260 90
2002-04-25 08:40:50 51°18.235 3°1.974 8.2 2 10.6 102260 90
2002-04-25 08:40:55 51°18.236 3°1.977 8.1 355 10.6 102260 90
2002-04-25 08:41:00 51°18.237 3°1.98 7.1 349 10.6 102260 90
2002-04-25 08:41:05 51°18.238 3°1.983 8.5 5 10.7 102260 90
2002-04-25 08:41:10 51°18.24 3°1.986 8.8 355 10.6 102260 90
2002-04-25 08:41:15 51°18.241 3°1.989 8.3 2 10.6 102260 90
2002-04-25 08:41:20 51°18.242 3°1.992 4 342 10.7 102250 90
2002-04-25 08:41:25 51°18.243 3°1.995 5.2 344 10.7 102250 90
2002-04-25 08:41:30 51°18.244 3°1.997 4.2 350 10.6 102250 90
2002-04-25 08:41:35 51°18.246 3°2 4.7 342 10.6 102250 90
2002-04-25 08:41:40 51°18.247 3°2.003 6.2 347 10.6 102250 90
2002-04-25 08:41:45 51°18.248 3°2.005 6.7 2 10.6 102250 90
2002-04-25 08:41:51 51°18.25 3°2.009 3.1 348 10.6 102250 90
2002-04-25 08:41:55 51°18.251 3°2.011 3.1 342 10.6 102250 90
2002-04-25 08:42:00 51°18.252 3°2.013 4.4 353 10.7 102250 90
2002-04-25 08:42:05 51°18.253 3°2.016 4.4 354 10.7 102250 90
2002-04-25 08:42:11 51°18.255 3°2.019 6 354 10.7 102250 90
2002-04-25 08:42:15 51°18.256 3°2.021 1.1 343 10.7 102250 90
2002-04-25 08:42:20 51°18.258 3°2.023 2.5 336 10.7 102260 90
2002-04-25 08:42:25 51°18.259 3°2.026 2.4 355 10.7 102260 90
2002-04-25 08:42:30 51°18.26 3°2.028 2.1 347 10.7 102260 91
2002-04-25 08:42:35 51°18.262 3°2.031 2.8 337 10.7 102260 91
2002-04-25 08:42:40 51°18.263 3°2.033 3.2 336 10.7 102260 91
2002-04-25 08:42:45 51°18.265 3°2.036 0.9 327 10.7 102260 91
2002-04-25 08:42:50 51°18.267 3°2.038 1.5 360 10.7 102250 91
2002-04-25 08:42:55 51°18.268 3°2.04 2.2 335 10.7 102250 91
2002-04-25 08:43:00 51°18.27 3°2.043 2.6 343 10.7 102260 90
2002-04-25 08:43:05 51°18.272 3°2.045 1.9 338 10.7 102260 90
2002-04-25 08:43:10 51°18.274 3°2.048 1.3 332 10.7 102250 90
2002-04-25 08:43:15 51°18.276 3°2.05 1.8 323 10.7 102250 90
2002-04-25 08:43:20 51°18.278 3°2.053 1.7 324 10.7 102260 90
2002-04-25 08:43:25 51°18.28 3°2.056 1.2 310 10.7 102260 90
2002-04-25 08:43:31 51°18.282 3°2.059 1.8 324 10.7 102260 91
2002-04-25 08:43:35 51°18.284 3°2.061 1.5 334 10.7 102260 91
2002-04-25 08:43:40 51°18.286 3°2.064 1.7 337 10.7 102260 90
2002-04-25 08:43:45 51°18.288 3°2.067 2.5 339 10.7 102260 90
2002-04-25 08:43:51 51°18.291 3°2.07 3 330 10.7 102250 90
2002-04-25 08:43:55 51°18.293 3°2.073 1.9 335 10.7 102250 90
2002-04-25 08:44:00 51°18.295 3°2.076 1 337 10.7 102250 90
2002-04-25 08:44:05 51°18.298 3°2.079 2.8 349 10.7 102250 90
2002-04-25 08:44:10 51°18.3 3°2.083 1.4 348 10.7 102260 90
2002-04-25 08:44:15 51°18.303 3°2.086 3.9 358 10.7 102260 90
2002-04-25 08:44:20 51°18.306 3°2.09 5 352 10.7 102250 90
2002-04-25 08:44:25 51°18.308 3°2.093 3.2 357 10.7 102250 90
2002-04-25 08:44:30 51°18.311 3°2.097 4.7 358 10.7 102250 90
2002-04-25 08:44:35 51°18.313 3°2.101 5.5 347 10.7 102250 90
2002-04-25 08:44:40 51°18.316 3°2.105 6.5 351 10.7 102260 90
2002-04-25 08:44:45 51°18.319 3°2.109 4.3 349 10.7 102260 90
2002-04-25 08:44:51 51°18.322 3°2.115 5.6 351 10.7 102250 90
2002-04-25 08:44:55 51°18.324 3°2.118 6.7 2 10.7 102250 90
2002-04-25 08:45:00 51°18.327 3°2.123 4.4 8 10.7 102250 90
2002-04-25 08:45:05 51°18.33 3°2.127 6 6 10.7 102250 90
2002-04-25 08:45:10 51°18.333 3°2.132 6.1 360 10.7 102250 90
2002-04-25 08:45:15 51°18.336 3°2.136 5.8 5 10.7 102250 90
2002-04-25 08:45:20 51°18.338 3°2.141 5.6 4 10.7 102250 90
2002-04-25 08:45:25 51°18.341 3°2.146 6.4 359 10.7 102250 90
2002-04-25 08:45:31 51°18.344 3°2.152 6 2 10.7 102250 90
2002-04-25 08:45:35 51°18.346 3°2.156 6.3 358 10.7 102250 90
2002-04-25 08:45:40 51°18.348 3°2.162 6.9 12 10.7 102260 90
2002-04-25 08:45:45 51°18.35 3°2.167 6.5 12 10.7 102260 90
2002-04-25 08:45:50 51°18.352 3°2.172 6.2 13 10.7 102250 90
2002-04-25 08:45:55 51°18.354 3°2.177 7.5 15 10.7 102250 90
2002-04-25 08:46:00 51°18.356 3°2.182 7.4 15 10.7 102250 90
2002-04-25 08:46:05 51°18.357 3°2.187 5.9 4 10.7 102250 90
2002-04-25 08:46:10 51°18.359 3°2.193 6.2 8 10.7 102260 90
2002-04-25 08:46:15 51°18.361 3°2.198 6.2 11 10.7 102260 90
2002-04-25 08:46:20 51°18.363 3°2.203 7 358 10.7 102250 90
2002-04-25 08:46:25 51°18.365 3°2.208 5.8 8 10.7 102250 90
2002-04-25 08:46:30 51°18.366 3°2.212 6.1 14 10.7 102250 90
2002-04-25 08:46:35 51°18.368 3°2.217 6.8 12 10.7 102250 90
2002-04-25 08:46:40 51°18.369 3°2.222 5.5 6 10.7 102250 90
2002-04-25 08:46:45 51°18.371 3°2.226 6.5   10.7 102250 90
2002-04-25 08:46:50 51°18.373 3°2.231 6 17 10.7 102250 90
2002-04-25 08:46:55 51°18.375 3°2.235 6.5 360 10.7 102260 90
2002-04-25 08:47:00 51°18.377 3°2.24 6.2 5 10.7 102260 90
2002-04-25 08:47:05 51°18.378 3°2.244 6.1 360 10.7 102260 90
2002-04-25 08:47:10 51°18.38 3°2.248 6.2 6 10.7 102260 90
2002-04-25 08:47:15 51°18.382 3°2.252 6.5 8 10.7 102260 90
2002-04-25 08:47:20 51°18.383 3°2.256 7 5 10.7 102260 90
2002-04-25 08:47:25 51°18.385 3°2.26 6.2 8 10.7 102260 90
2002-04-25 08:47:30 51°18.387 3°2.264 5.6 360 10.7 102260 90
2002-04-25 08:47:35 51°18.388 3°2.268 6.8 2 10.7 102260 90
2002-04-25 08:47:40 51°18.39 3°2.272 7.4 355 10.7 102260 90
2002-04-25 08:47:45 51°18.392 3°2.276 5.6 350 10.7 102260 90
2002-04-25 08:47:50 51°18.393 3°2.279 6.5 2 10.7 102260 90
2002-04-25 08:47:55 51°18.395 3°2.283 6.9 7 10.7 102260 90
2002-04-25 08:48:00 51°18.397 3°2.286 4.8 359 10.7 102260 90
2002-04-25 08:48:05 51°18.398 3°2.29 4.5 341 10.7 102260 90
2002-04-25 08:48:11 51°18.4 3°2.294 3.7 335 10.7 102260 90
2002-04-25 08:48:15 51°18.402 3°2.296 3.7 327 10.7 102260 90
2002-04-25 08:48:20 51°18.403 3°2.3 3.1 334 10.7 102260 90
2002-04-25 08:48:25 51°18.405 3°2.303 5 348 10.7 102260 90
2002-04-25 08:48:30 51°18.406 3°2.306 2.6 349 10.7 102260 90
2002-04-25 08:48:35 51°18.408 3°2.309 3 352 10.7 102260 90
2002-04-25 08:48:40 51°18.409 3°2.312 1.6 317 10.7 102250 90
2002-04-25 08:48:45 51°18.411 3°2.315 2.1 335 10.7 102250 90
2002-04-25 08:48:51 51°18.413 3°2.318 2.8 325 10.7 102250 90
2002-04-25 08:48:55 51°18.414 3°2.321 2.3 341 10.7 102250 90
2002-04-25 08:49:00 51°18.415 3°2.323 1.1 343 10.7 102260 90
2002-04-25 08:49:05 51°18.417 3°2.326 1.1 343 10.7 102260 90
2002-04-25 08:49:11 51°18.419 3°2.329 1.6 337 10.7 102260 90
2002-04-25 08:49:15 51°18.42 3°2.331 1 340 10.7 102260 90
2002-04-25 08:49:20 51°18.421 3°2.334 2.1 331 10.7 102260 90
2002-04-25 08:49:25 51°18.422 3°2.336 2.9 314 10.7 102260 90
2002-04-25 08:49:30 51°18.424 3°2.338 1.8 325 10.7 102260 90
2002-04-25 08:49:36 51°18.426 3°2.341 1.7 344 10.7 102260 90
2002-04-25 08:49:40 51°18.427 3°2.343 2.5 335 10.7 102260 90
2002-04-25 08:49:45 51°18.428 3°2.346 2 331 10.7 102260 90
2002-04-25 08:49:50 51°18.429 3°2.348 2.3 337 10.7 102260 90
2002-04-25 08:49:55 51°18.431 3°2.35 1.9 321 10.7 102260 90
2002-04-25 08:50:00 51°18.432 3°2.352 1 12 10.7 102270 90
2002-04-25 08:50:05 51°18.433 3°2.355 1.2 328 10.7 102270 90
2002-04-25 08:50:10 51°18.434 3°2.357 3.1 319 10.7 102260 90
2002-04-25 08:50:15 51°18.435 3°2.359 3.7 321 10.7 102260 90
2002-04-25 08:50:20 51°18.437 3°2.361 3 335 10.7 102260 90
2002-04-25 08:50:25 51°18.439 3°2.364 3.1 290 10.7 102260 90
2002-04-25 08:50:30 51°18.441 3°2.366 5 323 10.7 102260 90
2002-04-25 08:50:35 51°18.444 3°2.368 5 297 10.7 102260 90
2002-04-25 08:50:40 51°18.447 3°2.369 7.2 300 10.7 102270 90
2002-04-25 08:50:45 51°18.45 3°2.371 7.5 293 10.7 102270 90
2002-04-25 08:50:50 51°18.454 3°2.373 6.6 302 10.7 102260 90
2002-04-25 08:50:55 51°18.457 3°2.374 8.6 303 10.7 102260 90
2002-04-25 08:51:00 51°18.461 3°2.376 8.1 302 10.8 102260 90
2002-04-25 08:51:05 51°18.466 3°2.377 6.8 318 10.8 102260 90
2002-04-25 08:51:10 51°18.471 3°2.378 8 304 10.8 102260 90
2002-04-25 08:51:15 51°18.477 3°2.379 9.3 297 10.8 102260 90
2002-04-25 08:51:20 51°18.484 3°2.38 9.3 293 10.8 102250 90
2002-04-25 08:51:25 51°18.493 3°2.38 9.6 302 10.8 102250 90
2002-04-25 08:51:30 51°18.502 3°2.382 9.8 294 10.8 102250 90
2002-04-25 08:51:35 51°18.513 3°2.384 10.3 297 10.8 102250 90
2002-04-25 08:51:40 51°18.524 3°2.386 10.2 299 10.8 102260 90
2002-04-25 08:51:45 51°18.537 3°2.389 10.4 294 10.8 102260 90
2002-04-25 08:51:50 51°18.55 3°2.391 10 297 10.8 102250 90
2002-04-25 08:51:55 51°18.564 3°2.394 10.4 295 10.8 102250 90
2002-04-25 08:52:00 51°18.578 3°2.397 8.9 291 10.8 102250 90
2002-04-25 08:52:05 51°18.592 3°2.402 10.1 297 10.8 102250 90
2002-04-25 08:52:10 51°18.607 3°2.409 10.1 297 10.8 102250 90
2002-04-25 08:52:15 51°18.622 3°2.417 7.6 307 10.8 102250 90
2002-04-25 08:52:20 51°18.636 3°2.428 7.5 308 10.8 102250 90
2002-04-25 08:52:25 51°18.65 3°2.442 4.3 319 10.8 102250 90
2002-04-25 08:52:30 51°18.663 3°2.457 3.2 312 10.7 102260 90
2002-04-25 08:52:35 51°18.675 3°2.474 3 319 10.7 102260 90
2002-04-25 08:52:40 51°18.688 3°2.491 5.6 291 10.8 102250 90
2002-04-25 08:52:45 51°18.701 3°2.508 4.6 333 10.8 102250 90
2002-04-25 08:52:50 51°18.713 3°2.525 3.6 316 10.8 102270 90
2002-04-25 08:52:55 51°18.726 3°2.542 5.5 305 10.8 102270 90
2002-04-25 08:53:00 51°18.74 3°2.558 7.6 298 10.8 102270 90
2002-04-25 08:53:05 51°18.753 3°2.573 8.4 294 10.8 102270 90
2002-04-25 08:53:11 51°18.771 3°2.589 9.2 298 10.8 102270 90
2002-04-25 08:53:15 51°18.782 3°2.598 8.8 293 10.8 102270 90
2002-04-25 08:53:20 51°18.798 3°2.61 9.1 292 10.8 102270 90
2002-04-25 08:53:25 51°18.813 3°2.62 9.6 297 10.8 102270 90
2002-04-25 08:53:30 51°18.829 3°2.63 8.8 298 10.8 102260 90
2002-04-25 08:53:35 51°18.844 3°2.64 9.2 296 10.8 102260 90
2002-04-25 08:53:40 51°18.86 3°2.651 9.7 302 10.8 102260 90
2002-04-25 08:53:45 51°18.875 3°2.662 7.6 293 10.8 102260 90
2002-04-25 08:53:50 51°18.89 3°2.675 9 298 10.8 102260 90
2002-04-25 08:53:55 51°18.905 3°2.689 8 305 10.8 102260 90
2002-04-25 08:54:00 51°18.919 3°2.703 7.6 297 10.9 102260 90
2002-04-25 08:54:05 51°18.934 3°2.717 5 300 10.9 102260 90
2002-04-25 08:54:10 51°18.948 3°2.733 6.6 293 10.9 102260 90
2002-04-25 08:54:15 51°18.962 3°2.748 6.3 299 10.9 102260 90
2002-04-25 08:54:20 51°18.976 3°2.763 6.2 289 10.9 102260 90
2002-04-25 08:54:25 51°18.99 3°2.78 6.1 313 10.9 102260 90
2002-04-25 08:54:30 51°19.004 3°2.798 5.2 316 10.9 102260 90
2002-04-25 08:54:35 51°19.018 3°2.814 4.6 296 10.9 102260 90
2002-04-25 08:54:40 51°19.031 3°2.832 7.2 302 10.9 102270 90
2002-04-25 08:54:45 51°19.045 3°2.851 7.3 296 10.9 102270 90
2002-04-25 08:54:50 51°19.059 3°2.869 6.4 294 10.9 102270 90
2002-04-25 08:54:55 51°19.073 3°2.888 6.9 294 10.9 102270 90
2002-04-25 08:55:00 51°19.087 3°2.907 6 304 10.9 102270 90
2002-04-25 08:55:05 51°19.101 3°2.926 4.5 307 10.9 102270 90
2002-04-25 08:55:10 51°19.114 3°2.946 5.8 301 10.9 102270 90
2002-04-25 08:55:15 51°19.128 3°2.965 6.3 297 10.9 102270 90
2002-04-25 08:55:20 51°19.141 3°2.985 6.5 298 10.9 102270 90
2002-04-25 08:55:26 51°19.158 3°3.008 8.5 300 10.9 102270 90
2002-04-25 08:55:30 51°19.169 3°3.023 8.3 296 10.9 102270 90
2002-04-25 08:55:35 51°19.183 3°3.041 7 302 10.9 102270 90
2002-04-25 08:55:40 51°19.199 3°3.057 7.2 294 10.9 102270 90
2002-04-25 08:55:45 51°19.214 3°3.073 8.4 292 10.9 102270 90
2002-04-25 08:55:50 51°19.229 3°3.087 8.5 295 10.9 102260 90
2002-04-25 08:55:55 51°19.245 3°3.1 10.2 301 10.9 102260 90
2002-04-25 08:56:00 51°19.262 3°3.113 9.9 297 10.9 102260 90
2002-04-25 08:56:05 51°19.278 3°3.127 7.7 298 10.9 102260 90
2002-04-25 08:56:11 51°19.295 3°3.147 8.5 298 10.9 102260 90
2002-04-25 08:56:14 51°19.305 3°3.155 6.6 301 10.9 102270 90
2002-04-25 08:56:20 51°19.321 3°3.179 6.4 307 10.9 102260 90
2002-04-25 08:56:25 51°19.335 3°3.198 6.8 306 10.9 102260 90
2002-04-25 08:56:31 51°19.35 3°3.223 6.7 306 10.9 102270 90
2002-04-25 08:56:35 51°19.362 3°3.237 6.7 317 10.9 102270 90
2002-04-25 08:56:40 51°19.374 3°3.258 7.3 296 10.9 102270 90
2002-04-25 08:56:45 51°19.389 3°3.274 7 294 10.9 102270 90
2002-04-25 08:56:50 51°19.403 3°3.293 8 297 10.9 102270 90
2002-04-25 08:56:55 51°19.418 3°3.309 7.4 295 10.9 102270 90
2002-04-25 08:57:00 51°19.433 3°3.326 8.7 305 10.9 102270 90
2002-04-25 08:57:06 51°19.451 3°3.345 6.8 298 10.9 102270 90
2002-04-25 08:57:11 51°19.466 3°3.362 7.1 315 10.9 102270 90
2002-04-25 08:57:15 51°19.478 3°3.375 6.2 302 10.9 102270 90
2002-04-25 08:57:20 51°19.492 3°3.394 5.9 309 10.9 102270 90
2002-04-25 08:57:25 51°19.506 3°3.412 5.7 308 10.9 102270 90
2002-04-25 08:57:31 51°19.521 3°3.433 7.2 297 10.9 102260 90
2002-04-25 08:57:35 51°19.532 3°3.445 5.6 308 10.9 102260 90
2002-04-25 08:57:40 51°19.544 3°3.461 5.1 305 10.9 102270 90
2002-04-25 08:57:45 51°19.556 3°3.475 5.5 314 10.9 102270 90
2002-04-25 08:57:50 51°19.566 3°3.487 4.5 322 10.9 102270 90
2002-04-25 08:57:55 51°19.577 3°3.498 5.9 299 10.9 102270 90
2002-04-25 08:58:00 51°19.586 3°3.509 4.4 300 10.9 102270 90
2002-04-25 08:58:05 51°19.595 3°3.518 4.6 311 10.9 102270 90
2002-04-25 08:58:10 51°19.604 3°3.525 5.5 315 10.9 102270 90
2002-04-25 08:58:15 51°19.612 3°3.533 5.8 307 10.9 102270 90
2002-04-25 08:58:20 51°19.619 3°3.539 6 308 11 102260 90
2002-04-25 08:58:25 51°19.626 3°3.544 3.2 312 11 102260 90
2002-04-25 08:58:31 51°19.634 3°3.551 4.3 326 11 102270 90
2002-04-25 08:58:35 51°19.639 3°3.555 3.3 317 11 102270 90
2002-04-25 08:58:40 51°19.645 3°3.559 5 300 10.9 102270 90
2002-04-25 08:58:45 51°19.651 3°3.563 5.1 321 10.9 102270 90
2002-04-25 08:58:50 51°19.656 3°3.567 4.6 325 10.9 102260 90
2002-04-25 08:58:55 51°19.662 3°3.571 5.5 316 10.9 102260 90
2002-04-25 08:59:00 51°19.667 3°3.575 4.3 305 10.9 102260 90
2002-04-25 08:59:05 51°19.671 3°3.579 4.9 306 11 102260 90
2002-04-25 08:59:10 51°19.676 3°3.583 4.2 297 11 102260 90
2002-04-25 08:59:15 51°19.681 3°3.586 4.3 312 11 102260 90
2002-04-25 08:59:20 51°19.685 3°3.59 3.4 328 10.9 102260 90
2002-04-25 08:59:26 51°19.69 3°3.594 3.4 316 10.9 102260 90
2002-04-25 08:59:31 51°19.694 3°3.597 3.3 302 10.9 102260 90
2002-04-25 08:59:35 51°19.697 3°3.6 3.9 306 10.9 102260 90
2002-04-25 08:59:40 51°19.7 3°3.603 5.4 294 10.9 102260 90
2002-04-25 08:59:45 51°19.702 3°3.605 4.3 318 10.9 102260 90
2002-04-25 08:59:50 51°19.704 3°3.608 2.8 301 10.9 102260 90
2002-04-25 08:59:55 51°19.706 3°3.61 2.9 316 10.9 102260 90
2002-04-25 09:00:00 51°19.706 3°3.613 3.2 328 10.9 102270 90
2002-04-25 09:00:06 51°19.707 3°3.615 4.7 318 10.9 102270 90
2002-04-25 09:00:10 51°19.707 3°3.618 3.8 331 10.9 102260 90
2002-04-25 09:00:15 51°19.708 3°3.62 2.6 323 10.9 102260 90
2002-04-25 09:00:20 51°19.708 3°3.623 3.4 316 10.9 102260 90
2002-04-25 09:00:25 51°19.709 3°3.625 2.3 319 10.9 102260 90
2002-04-25 09:00:30 51°19.709 3°3.628 3.2 324 10.9 102260 90
2002-04-25 09:00:36 51°19.71 3°3.632 4.5 330 10.9 102260 90
2002-04-25 09:00:40 51°19.711 3°3.634 4.4 306 10.9 102270 90
2002-04-25 09:00:45 51°19.711 3°3.636 4.5 314 10.9 102270 90
2002-04-25 09:00:50 51°19.712 3°3.639 2.7 322 10.9 102270 90
2002-04-25 09:00:55 51°19.712 3°3.642 4.3 306 10.9 102270 90
2002-04-25 09:01:00 51°19.713 3°3.644 2.5 320 10.9 102260 90
2002-04-25 09:01:05 51°19.713 3°3.647 3.6 328 10.9 102260 90
2002-04-25 09:01:11 51°19.714 3°3.65 3.2 308 10.9 102260 90
2002-04-25 09:01:15 51°19.715 3°3.652 4.6 299 10.9 102260 90
2002-04-25 09:01:20 51°19.715 3°3.654 3 309 10.9 102260 90
2002-04-25 09:01:25 51°19.715 3°3.657 3.7 308 10.9 102260 90
2002-04-25 09:01:30 51°19.716 3°3.659 5.1 307 10.9 102260 90
2002-04-25 09:01:35 51°19.717 3°3.662 6.2 292 10.9 102260 90
2002-04-25 09:01:40 51°19.718 3°3.665 3.7 351 10.9 102260 90
2002-04-25 09:01:45 51°19.718 3°3.667 4.1 319 10.9 102270 90
2002-04-25 09:01:50 51°19.719 3°3.67 4.6 321 10.9 102270 90
2002-04-25 09:01:55 51°19.72 3°3.673 6.4 315 10.9 102270 90
2002-04-25 09:02:00 51°19.721 3°3.675 6.6 302 10.9 102270 90
2002-04-25 09:02:05 51°19.721 3°3.678 5.1 317 10.9 102260 90
2002-04-25 09:02:11 51°19.722 3°3.681 6.8 297 10.9 102260 90
2002-04-25 09:02:15 51°19.722 3°3.684 6.7 304 10.9 102270 90
2002-04-25 09:02:20 51°19.723 3°3.686 5.2 319 10.9 102270 90
2002-04-25 09:02:26 51°19.723 3°3.69 6.1 314 10.9 102260 90
2002-04-25 09:02:30 51°19.723 3°3.692 7.8 300 10.9 102260 90
2002-04-25 09:02:35 51°19.724 3°3.695 7.5 297 10.9 102260 90
2002-04-25 09:02:40 51°19.724 3°3.697 8.1 295 10.9 102260 90
2002-04-25 09:02:45 51°19.724 3°3.7 6.2 307 10.9 102260 90
2002-04-25 09:02:51 51°19.725 3°3.703 4.9 308 10.9 102260 90
2002-04-25 09:02:55 51°19.725 3°3.705 5.8 297 10.9 102260 90
2002-04-25 09:03:00 51°19.726 3°3.708 5.3 304 10.9 102260 90
2002-04-25 09:03:05 51°19.726 3°3.711 7 302 10.9 102260 90
2002-04-25 09:03:10 51°19.726 3°3.714 5.8 321 10.9 102260 90
2002-04-25 09:03:15 51°19.726 3°3.717 6.3 310 10.9 102250 90
2002-04-25 09:03:20 51°19.726 3°3.719 7.2 308 10.9 102250 90
2002-04-25 09:03:25 51°19.727 3°3.722 7.5 303 10.9 102250 90
2002-04-25 09:03:30 51°19.727 3°3.725 6.8 301 10.9 102250 90
2002-04-25 09:03:35 51°19.727 3°3.727 7 299 10.9 102250 90
2002-04-25 09:03:40 51°19.727 3°3.73 8.2 300 10.9 102250 90
2002-04-25 09:03:45 51°19.728 3°3.734 7 306 10.9 102260 90
2002-04-25 09:03:51 51°19.728 3°3.737 6.7 299 10.9 102260 90
2002-04-25 09:03:55 51°19.729 3°3.739 5.4 301 10.9 102250 89
2002-04-25 09:04:00 51°19.729 3°3.742 4.7 311 10.9 102250 89
2002-04-25 09:04:05 51°19.73 3°3.745 5.6 296 10.9 102250 89
2002-04-25 09:04:10 51°19.73 3°3.747 6 321 10.9 102250 89
2002-04-25 09:04:15 51°19.731 3°3.75 8.9 295 10.9 102250 89
2002-04-25 09:04:20 51°19.732 3°3.753 4.8 284 10.9 102250 89
2002-04-25 09:04:25 51°19.732 3°3.756 5.5 298 10.9 102250 90
2002-04-25 09:04:30 51°19.733 3°3.759 6.8 302 10.9 102260 90
2002-04-25 09:04:35 51°19.734 3°3.762 8 287 10.9 102260 90
2002-04-25 09:04:40 51°19.734 3°3.765 7.9 299 10.9 102260 90
2002-04-25 09:04:45 51°19.734 3°3.768 5.7 314 10.9 102250 90
2002-04-25 09:04:50 51°19.735 3°3.771 4.4 309 10.9 102250 90
2002-04-25 09:04:55 51°19.735 3°3.773 6.4 317 10.9 102240 90
2002-04-25 09:05:00 51°19.735 3°3.776 4.5 313 10.9 102240 90
2002-04-25 09:05:05 51°19.736 3°3.779 4.9 310 10.9 102250 90
2002-04-25 09:05:10 51°19.736 3°3.782 5.7 300 10.9 102250 90
2002-04-25 09:05:15 51°19.737 3°3.785 6.9 300 10.9 102250 90
2002-04-25 09:05:20 51°19.737 3°3.788 6.5 302 10.9 102250 90
2002-04-25 09:05:25 51°19.737 3°3.791 7.3 306 10.9 102250 90
2002-04-25 09:05:30 51°19.738 3°3.794 7.1 304 10.9 102250 90
2002-04-25 09:05:35 51°19.738 3°3.797 6.8 310 10.9 102250 90
2002-04-25 09:05:41 51°19.738 3°3.801 7.5 300 10.9 102250 90
2002-04-25 09:05:45 51°19.738 3°3.803 6.9 303 11 102250 90
2002-04-25 09:05:50 51°19.739 3°3.806 7.8 297 11 102250 90
2002-04-25 09:05:55 51°19.738 3°3.81 6 309 11 102250 90
2002-04-25 09:06:00 51°19.739 3°3.813 5.4 300 11 102250 90
2002-04-25 09:06:05 51°19.739 3°3.816 8 308 10.9 102250 90
2002-04-25 09:06:10 51°19.739 3°3.819 7.1 303 10.9 102250 90
2002-04-25 09:06:15 51°19.739 3°3.822 7 298 10.9 102250 90
2002-04-25 09:06:20 51°19.74 3°3.825 7.3 295 10.9 102250 90
2002-04-25 09:06:25 51°19.74 3°3.828 7 310 11 102250 90
2002-04-25 09:06:30 51°19.74 3°3.831 7.7 304 11 102250 90
2002-04-25 09:06:35 51°19.741 3°3.834 7.8 299 11 102260 90
2002-04-25 09:06:40 51°19.741 3°3.837 6.3 299 11 102260 90
2002-04-25 09:06:45 51°19.742 3°3.84 7.2 294 11 102250 90
2002-04-25 09:06:50 51°19.742 3°3.843 6.4 296 11 102250 90
2002-04-25 09:06:55 51°19.743 3°3.846 5.8 313 11 102250 90
2002-04-25 09:07:01 51°19.743 3°3.85 6 319 11 102250 90